Location: Grust
(42.8833°N, 0.0333°W)
Time: 20:15:57
(UTC+00:00)

BREEZE-M R/B - Pass Details

Date: 25 October 2020
Orbit: 281 x 23022 km, 49.2° (Epoch: 22 November)

Event Time Altitude Azimuth Distance (km) Brightness Sun altitude
Rises 18:25:49 0° 278° (W) 6,923 10.6 -16.0°
Reaches altitude 10° 18:32:45 10° 285° (WNW) 3,798 8.7 -17.3°
Maximum altitude 18:39:19 35° 351° (N) 959 4.6 -18.5°
Enters shadow 18:40:15 29° 28° (NNE) 941 4.2 -18.7°
